CZ-3C DEB, 42477

Orbit data source: Space-Track

CZ-3C DEB, 42477 is space debris in HEO originally from a launch on Fri, 24 Feb 2012 UTC launched from the Xichang Space Center, China (XSC). Debris objects in space refer to the collection of defunct objects orbiting the Earth. Examples of debris include non-operational satellites, rocket bodies, and fragments generated from explosions, collisions, or faulty payload assembly.

Loading next visibility...
Identifier
42477, 2012-008AM
Orbit
HEO
Country
Flag of CNCN / PRC
Related business
Manufacturer
CALT
Mission
Spacecraft
Bus & Motor
Unknown
Mass
Unknown
Launch date (UTC)
2012-02-24 (14 years ago)
Launch vehicle
Unknown
Launch site
Xichang Space Center, China (XSC)
Object type
Payload
Rocket body
Debris
Shape & HBR
Unknown shape, 0.2 m
Radar Cross Section
Medium (>0.1 m² and <1 m²)

Expand to show TLE details & history
Last TLE update: 1 week ago

TLE from 1 week ago
0 CZ-3C DEB
1 42477U 12008AM  26166.68434149  .00001177  00000-0  28644-2 0  9997
2 42477  19.9966  27.5051 6903448 148.5445 282.8416  2.67282610105888
Epoch: 2026-06-15T16:25Z
TLE epoch observation values (Epoch: 2026-06-15T16:25:27.104Z)
Latitude
0.00001°
Longitude
-122.83668°
Altitude
21,556.533 km
Speed
3.219 km/s
True Right ascension
01h 49m 58s
True Declination
0° 00' 00"
Sunlit
Object was in daylight at epoch
Visualization orbit readout
Latitude
Unknown
Longitude
Unknown
Altitude
Unknown
Speed
Unknown
Apparent Right ascension
Unknown
Apparent Declination
Unknown
Sunlit
N/A
Visualization observer readout
Local Sidereal Time
21:36:54
Azimuth
Unknown
Elevation
Unknown
Doppler factor
Unknown
Orbital elements
Apogee altitude
30,702.757 km
Perigee altitude
414.732 km
Semi-major axis
21,936.882 km
Eccentricity
0.69034
Inclination
19.9966°
RAAN
27.5051°
Arg. of periapsis
148.5445°
True anomaly
211.38016°
Mean anomaly
282.8416°
Eccentric anomaly
246.55361°
Mean motion
0.66801 °/min
Orbital period
538.92 mins
BSTAR
0.0028644
Loading maneuver chart data...
Computing Atmospheric mass density...
Loading historical data...
Loading historical data...
Loading historical data...
Loading historical data...
Loading historical data...
Loading historical data...
Loading historical data...

Documentation

Showing up to 5 results
|